Time,TemperatureF,DewpointF,PressureIn,WindDirection,WindDirectionDegrees,WindSpeedMPH,WindSpeedGustMPH,Humidity,HourlyPrecipIn,Conditions,Clouds,dailyrainin,SoftwareType,DateUTC
2013-05-23 00:01:00,50.4,42.8,29.71,East,90,4.0,6.0,75,0.00,,,0.00,meteohub,2013-05-23 07:01:00,
2013-05-23 00:06:00,50.4,42.8,29.71,NE,37,4.0,6.0,75,0.00,,,0.00,meteohub,2013-05-23 07:06:00,
2013-05-23 00:11:00,50.4,42.8,29.71,East,101,8.0,9.0,75,0.00,,,0.00,meteohub,2013-05-23 07:11:00,
2013-05-23 00:16:00,50.4,42.8,29.71,NE,34,4.0,9.0,75,0.00,,,0.00,meteohub,2013-05-23 07:16:00,
2013-05-23 00:21:00,50.2,42.6,29.71,NE,46,10.0,10.0,75,0.00,,,0.00,meteohub,2013-05-23 07:21:00,
2013-05-23 00:26:00,50.2,42.6,29.71,North,3,3.0,9.0,75,0.00,,,0.00,meteohub,2013-05-23 07:26:00,
2013-05-23 00:32:00,50.2,42.6,29.71,NE,47,3.0,9.0,75,0.00,,,0.00,meteohub,2013-05-23 07:32:00,
2013-05-23 00:37:00,50.2,42.6,29.71,ENE,59,5.0,10.0,75,0.00,,,0.00,meteohub,2013-05-23 07:37:00,
2013-05-23 00:42:00,50.2,42.6,29.71,ENE,65,3.0,10.0,75,0.00,,,0.00,meteohub,2013-05-23 07:42:00,
2013-05-23 00:47:00,50.2,43.0,29.71,East,89,3.0,6.0,76,0.00,,,0.00,meteohub,2013-05-23 07:47:00,
2013-05-23 00:52:00,50.2,43.0,29.71,NE,55,0.0,6.0,76,0.00,,,0.00,meteohub,2013-05-23 07:52:00,
2013-05-23 00:57:00,50.2,43.0,29.71,NE,52,0.0,6.0,76,0.00,,,0.00,meteohub,2013-05-23 07:57:00,
2013-05-23 01:02:00,50.2,43.0,29.71,NE,46,2.0,6.0,76,0.00,,,0.00,meteohub,2013-05-23 08:02:00,
2013-05-23 01:07:00,50.2,43.0,29.71,East,86,6.0,6.0,76,0.00,,,0.00,meteohub,2013-05-23 08:07:00,
2013-05-23 01:12:00,50.2,43.0,29.71,NE,41,3.0,6.0,76,0.00,,,0.00,meteohub,2013-05-23 08:12:00,
2013-05-23 01:17:00,50.2,43.0,29.71,NE,49,4.0,8.0,76,0.00,,,0.00,meteohub,2013-05-23 08:17:00,
2013-05-23 01:23:00,50.2,43.3,29.71,East,79,0.0,8.0,77,0.00,,,0.00,meteohub,2013-05-23 08:23:00,
2013-05-23 01:28:00,50.2,43.3,29.71,East,93,6.0,6.0,77,0.00,,,0.00,meteohub,2013-05-23 08:28:00,
2013-05-23 01:33:00,50.2,43.3,29.71,ENE,62,5.0,6.0,77,0.00,,,0.00,meteohub,2013-05-23 08:33:00,
2013-05-23 01:38:00,50.2,43.3,29.71,ENE,60,5.0,9.0,77,0.00,,,0.00,meteohub,2013-05-23 08:38:00,
2013-05-23 01:43:00,50.2,43.3,29.71,East,95,3.0,9.0,77,0.00,,,0.00,meteohub,2013-05-23 08:43:00,
2013-05-23 01:48:00,50.2,43.3,29.71,East,100,6.0,12.0,77,0.00,,,0.00,meteohub,2013-05-23 08:48:00,
2013-05-23 01:53:00,50.0,43.2,29.71,ENE,72,3.0,12.0,77,0.00,,,0.00,meteohub,2013-05-23 08:53:00,
2013-05-23 01:58:00,50.2,43.5,29.71,ENE,70,10.0,13.0,78,0.00,,,0.00,meteohub,2013-05-23 08:58:00,
2013-05-23 02:04:00,50.2,43.5,29.71,East,97,9.0,13.0,78,0.00,,,0.00,meteohub,2013-05-23 09:04:00,
2013-05-23 02:08:00,50.2,43.5,29.68,East,95,5.0,11.0,78,0.00,,,0.00,meteohub,2013-05-23 09:08:00,
2013-05-23 02:14:00,50.0,43.2,29.68,ENE,60,8.0,11.0,77,0.00,,,0.00,meteohub,2013-05-23 09:14:00,
2013-05-23 02:19:00,50.0,43.2,29.68,East,84,5.0,10.0,77,0.00,,,0.00,meteohub,2013-05-23 09:19:00,
2013-05-23 02:24:00,50.0,43.3,29.68,ENE,59,6.0,10.0,78,0.00,,,0.00,meteohub,2013-05-23 09:24:00,
2013-05-23 02:29:00,50.0,43.3,29.68,ENE,63,6.0,10.0,78,0.00,,,0.00,meteohub,2013-05-23 09:29:00,
2013-05-23 02:34:00,49.8,43.2,29.68,East,87,5.0,10.0,78,0.00,,,0.00,meteohub,2013-05-23 09:34:00,
2013-05-23 02:39:00,49.8,43.2,29.68,East,79,6.0,13.0,78,0.00,,,0.00,meteohub,2013-05-23 09:39:00,
2013-05-23 02:44:00,49.8,43.0,29.68,ENE,74,5.0,13.0,77,0.00,,,0.00,meteohub,2013-05-23 09:44:00,
2013-05-23 02:49:00,50.0,43.2,29.68,ENE,75,8.0,13.0,77,0.00,,,0.00,meteohub,2013-05-23 09:49:00,
2013-05-23 02:55:00,50.0,43.3,29.68,ESE,117,7.0,9.0,78,0.00,,,0.00,meteohub,2013-05-23 09:55:00,
2013-05-23 03:00:00,50.0,43.3,29.68,East,85,7.0,9.0,78,0.00,,,0.00,meteohub,2013-05-23 10:00:00,
2013-05-23 03:05:00,50.0,43.3,29.68,East,96,6.0,9.0,78,0.00,,,0.00,meteohub,2013-05-23 10:05:00,
2013-05-23 03:10:00,50.0,43.3,29.68,ESE,106,6.0,10.0,78,0.00,,,0.00,meteohub,2013-05-23 10:10:00,
2013-05-23 03:15:00,50.0,43.3,29.68,NE,51,3.0,10.0,78,0.00,,,0.00,meteohub,2013-05-23 10:15:00,
2013-05-23 03:20:00,49.8,43.5,29.68,ESE,117,5.0,8.0,79,0.00,,,0.00,meteohub,2013-05-23 10:20:00,
2013-05-23 03:25:00,50.0,43.7,29.68,NE,54,3.0,10.0,79,0.00,,,0.00,meteohub,2013-05-23 10:25:00,
2013-05-23 03:30:00,49.8,43.5,29.68,ENE,78,3.0,10.0,79,0.00,,,0.00,meteohub,2013-05-23 10:30:00,
2013-05-23 03:35:00,49.8,43.5,29.68,ENE,75,2.0,10.0,79,0.00,,,0.00,meteohub,2013-05-23 10:35:00,
2013-05-23 03:40:00,49.8,43.2,29.68,East,93,3.0,10.0,78,0.00,,,0.00,meteohub,2013-05-23 10:40:00,
2013-05-23 03:46:00,49.8,43.2,29.68,ENE,78,5.0,8.0,78,0.00,,,0.00,meteohub,2013-05-23 10:46:00,
2013-05-23 03:51:00,49.8,43.2,29.68,ESE,105,3.0,8.0,78,0.00,,,0.00,meteohub,2013-05-23 10:51:00,
2013-05-23 03:56:00,49.8,43.2,29.68,ESE,107,3.0,8.0,78,0.00,,,0.00,meteohub,2013-05-23 10:56:00,
2013-05-23 04:01:00,49.8,43.2,29.68,East,90,3.0,8.0,78,0.00,,,0.00,meteohub,2013-05-23 11:01:00,
2013-05-23 04:06:00,49.6,43.3,29.68,East,87,0.0,8.0,79,0.00,,,0.00,meteohub,2013-05-23 11:06:00,
2013-05-23 04:11:00,49.6,43.3,29.68,NE,50,3.0,9.0,79,0.00,,,0.00,meteohub,2013-05-23 11:11:00,
2013-05-23 04:16:00,49.6,43.3,29.68,ENE,65,3.0,9.0,79,0.00,,,0.00,meteohub,2013-05-23 11:16:00,
2013-05-23 04:21:00,49.6,43.0,29.68,ENE,59,3.0,8.0,78,0.00,,,0.00,meteohub,2013-05-23 11:21:00,
2013-05-23 04:26:00,49.5,42.8,29.68,ENE,61,3.0,8.0,78,0.00,,,0.00,meteohub,2013-05-23 11:26:00,
2013-05-23 04:32:00,49.5,43.2,29.68,East,88,3.0,8.0,79,0.00,,,0.00,meteohub,2013-05-23 11:32:00,
2013-05-23 04:37:00,49.5,42.8,29.71,ENE,76,0.0,6.0,78,0.00,,,0.00,meteohub,2013-05-23 11:37:00,
2013-05-23 04:42:00,49.5,42.8,29.71,ENE,61,0.0,6.0,78,0.00,,,0.00,meteohub,2013-05-23 11:42:00,
2013-05-23 04:47:00,49.5,42.8,29.71,NE,50,0.0,6.0,78,0.00,,,0.00,meteohub,2013-05-23 11:47:00,
2013-05-23 04:52:00,49.5,42.8,29.71,ENE,64,0.0,6.0,78,0.00,,,0.00,meteohub,2013-05-23 11:52:00,
2013-05-23 04:57:00,49.3,42.8,29.71,ESE,106,0.0,4.0,78,0.00,,,0.00,meteohub,2013-05-23 11:57:00,
2013-05-23 05:02:00,49.3,42.8,29.71,ENE,66,3.0,4.0,78,0.00,,,0.00,meteohub,2013-05-23 12:02:00,
2013-05-23 05:07:00,48.9,42.6,29.68,NE,35,4.0,4.0,79,0.00,,,0.00,meteohub,2013-05-23 12:07:00,
2013-05-23 05:13:00,48.9,42.6,29.68,ENE,69,3.0,4.0,79,0.00,,,0.00,meteohub,2013-05-23 12:13:00,
2013-05-23 05:18:00,48.9,42.6,29.68,ENE,67,3.0,8.0,79,0.00,,,0.00,meteohub,2013-05-23 12:18:00,
2013-05-23 05:23:00,48.7,42.8,29.71,ENE,64,4.0,8.0,80,0.00,,,0.00,meteohub,2013-05-23 12:23:00,
2013-05-23 05:28:00,48.7,42.8,29.71,ENE,58,4.0,6.0,80,0.00,,,0.00,meteohub,2013-05-23 12:28:00,
2013-05-23 05:33:00,48.7,42.8,29.71,ENE,71,0.0,6.0,80,0.00,,,0.00,meteohub,2013-05-23 12:33:00,
2013-05-23 05:38:00,48.6,42.6,29.68,East,81,0.0,6.0,80,0.00,,,0.00,meteohub,2013-05-23 12:38:00,
2013-05-23 05:43:00,48.6,42.6,29.68,North,353,0.0,8.0,80,0.00,,,0.00,meteohub,2013-05-23 12:43:00,
2013-05-23 05:48:00,48.6,42.6,29.68,NE,52,0.0,8.0,80,0.00,,,0.00,meteohub,2013-05-23 12:48:00,
2013-05-23 05:53:00,48.4,42.4,29.71,NE,52,0.0,8.0,80,0.00,,,0.00,meteohub,2013-05-23 12:53:00,
2013-05-23 05:59:00,48.4,42.4,29.71,NNW,343,0.0,5.0,80,0.00,,,0.00,meteohub,2013-05-23 12:59:00,
2013-05-23 06:04:00,48.4,42.4,29.71,NE,50,3.0,5.0,80,0.00,,,0.00,meteohub,2013-05-23 13:04:00,
2013-05-23 06:09:00,48.4,42.4,29.71,ENE,70,0.0,5.0,80,0.00,,,0.00,meteohub,2013-05-23 13:09:00,
2013-05-23 06:14:00,48.4,42.3,29.71,East,95,0.0,5.0,79,0.00,,,0.00,meteohub,2013-05-23 13:14:00,
2013-05-23 06:19:00,48.2,42.1,29.71,ENE,60,0.0,6.0,79,0.00,,,0.00,meteohub,2013-05-23 13:19:00,
2013-05-23 06:24:00,48.2,42.1,29.71,ENE,70,2.0,6.0,79,0.00,,,0.00,meteohub,2013-05-23 13:24:00,
2013-05-23 06:29:00,48.2,42.1,29.71,East,81,4.0,6.0,79,0.00,,,0.00,meteohub,2013-05-23 13:29:00,
2013-05-23 06:34:00,48.2,42.1,29.71,NE,43,0.0,6.0,79,0.00,,,0.00,meteohub,2013-05-23 13:34:00,
2013-05-23 06:40:00,48.2,42.1,29.71,ENE,64,4.0,6.0,79,0.00,,,0.00,meteohub,2013-05-23 13:40:00,
2013-05-23 06:45:00,48.2,42.1,29.71,ENE,66,0.0,6.0,79,0.00,,,0.00,meteohub,2013-05-23 13:45:00,
2013-05-23 06:50:00,48.2,42.1,29.71,East,101,0.0,6.0,79,0.00,,,0.00,meteohub,2013-05-23 13:50:00,
2013-05-23 06:55:00,48.2,42.1,29.71,SW,224,0.0,4.0,79,0.00,,,0.00,meteohub,2013-05-23 13:55:00,
2013-05-23 07:00:00,48.4,42.3,29.71,ENE,74,5.0,5.0,79,0.00,,,0.00,meteohub,2013-05-23 14:00:00,
2013-05-23 07:05:00,48.4,42.3,29.71,ENE,76,0.0,4.0,79,0.00,,,0.00,meteohub,2013-05-23 14:05:00,
2013-05-23 07:10:00,48.6,42.3,29.71,East,80,0.0,5.0,79,0.00,,,0.00,meteohub,2013-05-23 14:10:00,
2013-05-23 07:16:00,48.6,42.1,29.71,ENE,59,2.0,5.0,78,0.00,,,0.00,meteohub,2013-05-23 14:16:00,
2013-05-23 07:21:00,48.6,42.1,29.71,ENE,73,5.0,5.0,78,0.00,,,0.00,meteohub,2013-05-23 14:21:00,
2013-05-23 07:26:00,48.7,41.5,29.71,East,85,4.0,5.0,76,0.00,,,0.00,meteohub,2013-05-23 14:26:00,
2013-05-23 07:31:00,48.9,41.4,29.71,East,82,5.0,8.0,75,0.00,,,0.00,meteohub,2013-05-23 14:31:00,
2013-05-23 07:36:00,49.1,41.5,29.71,East,100,4.0,8.0,75,0.00,,,0.00,meteohub,2013-05-23 14:36:00,
2013-05-23 07:41:00,49.1,41.2,29.71,ENE,78,4.0,8.0,74,0.00,,,0.00,meteohub,2013-05-23 14:41:00,
2013-05-23 07:46:00,49.5,40.8,29.71,ENE,76,8.0,9.0,72,0.00,,,0.00,meteohub,2013-05-23 14:46:00,
2013-05-23 07:51:00,49.6,40.3,29.71,ESE,115,9.0,9.0,70,0.00,,,0.00,meteohub,2013-05-23 14:51:00,
2013-05-23 07:56:00,49.8,40.1,29.71,ENE,74,6.0,9.0,69,0.00,,,0.00,meteohub,2013-05-23 14:56:00,
2013-05-23 08:01:00,49.8,40.1,29.71,East,79,5.0,11.0,69,0.00,,,0.00,meteohub,2013-05-23 15:01:00,
2013-05-23 08:06:00,49.8,40.1,29.71,SE,130,8.0,11.0,69,0.00,,,0.00,meteohub,2013-05-23 15:06:00,
2013-05-23 08:11:00,50.2,40.5,29.71,ESE,113,6.0,11.0,69,0.00,,,0.00,meteohub,2013-05-23 15:11:00,
2013-05-23 08:17:00,50.4,40.6,29.71,East,90,9.0,13.0,69,0.00,,,0.00,meteohub,2013-05-23 15:17:00,
2013-05-23 08:22:00,50.5,40.8,29.71,ENE,72,5.0,13.0,69,0.00,,,0.00,meteohub,2013-05-23 15:22:00,
2013-05-23 08:27:00,50.7,40.5,29.71,ENE,75,3.0,13.0,68,0.00,,,0.00,meteohub,2013-05-23 15:27:00,
2013-05-23 08:32:00,50.9,40.6,29.71,NE,36,3.0,9.0,68,0.00,,,0.00,meteohub,2013-05-23 15:32:00,
2013-05-23 08:37:00,50.9,40.6,29.71,ESE,105,8.0,9.0,68,0.00,,,0.00,meteohub,2013-05-23 15:37:00,
2013-05-23 08:42:00,51.3,41.0,29.71,NE,49,5.0,9.0,68,0.00,,,0.00,meteohub,2013-05-23 15:42:00,
2013-05-23 08:47:00,50.9,39.9,29.71,ENE,70,6.0,9.0,66,0.00,,,0.00,meteohub,2013-05-23 15:47:00,
2013-05-23 08:52:00,51.1,40.5,29.74,NE,54,6.0,9.0,67,0.00,,,0.00,meteohub,2013-05-23 15:52:00,
2013-05-23 08:57:00,51.3,41.0,29.74,ENE,66,6.0,10.0,68,0.00,,,0.00,meteohub,2013-05-23 15:57:00,
2013-05-23 09:03:00,51.4,40.8,29.74,ESE,106,6.0,10.0,67,0.00,,,0.00,meteohub,2013-05-23 16:03:00,
2013-05-23 09:08:00,51.6,41.0,29.74,East,101,7.0,10.0,67,0.00,,,0.00,meteohub,2013-05-23 16:08:00,
2013-05-23 09:13:00,51.6,40.6,29.74,East,89,8.0,10.0,66,0.00,,,0.00,meteohub,2013-05-23 16:13:00,
2013-05-23 09:18:00,51.6,40.6,29.74,East,92,3.0,11.0,66,0.00,,,0.00,meteohub,2013-05-23 16:18:00,
2013-05-23 09:23:00,51.6,41.0,29.74,East,95,8.0,11.0,67,0.00,,,0.00,meteohub,2013-05-23 16:23:00,
2013-05-23 09:28:00,51.6,41.0,29.74,ENE,77,6.0,11.0,67,0.00,,,0.00,meteohub,2013-05-23 16:28:00,
2013-05-23 09:33:00,51.8,41.2,29.74,East,85,6.0,11.0,67,0.00,,,0.00,meteohub,2013-05-23 16:33:00,
2013-05-23 09:38:00,52.0,40.6,29.74,East,92,6.0,11.0,65,0.00,,,0.00,meteohub,2013-05-23 16:38:00,
2013-05-23 09:43:00,52.3,41.4,29.74,ESE,114,4.0,11.0,66,0.00,,,0.00,meteohub,2013-05-23 16:43:00,
2013-05-23 09:48:00,52.5,41.2,29.74,East,100,5.0,11.0,65,0.00,,,0.00,meteohub,2013-05-23 16:48:00,
2013-05-23 09:54:00,52.5,40.6,29.74,ENE,58,6.0,11.0,64,0.00,,,0.00,meteohub,2013-05-23 16:54:00,
2013-05-23 09:59:00,52.9,40.6,29.74,East,91,0.0,10.0,63,0.00,,,0.00,meteohub,2013-05-23 16:59:00,
2013-05-23 10:04:00,52.9,41.0,29.74,ENE,67,5.0,10.0,64,0.00,,,0.00,meteohub,2013-05-23 17:04:00,
2013-05-23 10:09:00,52.9,41.0,29.74,East,85,6.0,10.0,64,0.00,,,0.00,meteohub,2013-05-23 17:09:00,
2013-05-23 10:14:00,53.1,40.8,29.74,NE,48,4.0,10.0,63,0.00,,,0.00,meteohub,2013-05-23 17:14:00,
2013-05-23 10:19:00,53.1,40.8,29.74,ESE,105,4.0,8.0,63,0.00,,,0.00,meteohub,2013-05-23 17:19:00,
2013-05-23 10:24:00,53.2,40.6,29.74,ESE,104,8.0,8.0,62,0.00,,,0.00,meteohub,2013-05-23 17:24:00,
2013-05-23 10:29:00,53.6,39.6,29.74,ESE,113,5.0,11.0,59,0.00,,,0.00,meteohub,2013-05-23 17:29:00,
2013-05-23 10:34:00,54.0,40.8,29.74,East,79,4.0,11.0,61,0.00,,,0.00,meteohub,2013-05-23 17:34:00,
2013-05-23 10:40:00,54.1,40.6,29.74,NNE,30,5.0,11.0,60,0.00,,,0.00,meteohub,2013-05-23 17:40:00,
2013-05-23 10:45:00,54.3,40.8,29.74,East,79,6.0,11.0,60,0.00,,,0.00,meteohub,2013-05-23 17:45:00,
2013-05-23 10:50:00,54.5,40.5,29.74,ESE,104,6.0,11.0,59,0.00,,,0.00,meteohub,2013-05-23 17:50:00,
2013-05-23 10:55:00,54.7,40.3,29.74,East,101,8.0,11.0,58,0.00,,,0.00,meteohub,2013-05-23 17:55:00,
2013-05-23 11:00:00,54.7,39.7,29.74,ESE,121,3.0,11.0,57,0.00,,,0.00,meteohub,2013-05-23 18:00:00,
2013-05-23 11:05:00,55.0,40.5,29.74,SSE,148,3.0,11.0,58,0.00,,,0.00,meteohub,2013-05-23 18:05:00,
2013-05-23 11:10:00,55.2,40.3,29.74,East,93,4.0,11.0,57,0.00,,,0.00,meteohub,2013-05-23 18:10:00,
2013-05-23 11:15:00,55.4,39.9,29.74,ESE,102,8.0,12.0,56,0.00,,,0.00,meteohub,2013-05-23 18:15:00,
2013-05-23 11:21:00,55.4,39.9,29.74,SE,133,9.0,12.0,56,0.00,,,0.00,meteohub,2013-05-23 18:21:00,
2013-05-23 11:26:00,55.4,39.9,29.74,ENE,75,5.0,12.0,56,0.00,,,0.00,meteohub,2013-05-23 18:26:00,
2013-05-23 11:31:00,55.8,38.8,29.74,ENE,69,6.0,9.0,53,0.00,,,0.00,meteohub,2013-05-23 18:31:00,
2013-05-23 11:36:00,55.8,39.4,29.74,ESE,109,4.0,9.0,54,0.00,,,0.00,meteohub,2013-05-23 18:36:00,
2013-05-23 11:41:00,55.8,38.8,29.74,ENE,64,9.0,9.0,53,0.00,,,0.00,meteohub,2013-05-23 18:41:00,
2013-05-23 11:46:00,55.9,39.6,29.74,SE,135,6.0,9.0,54,0.00,,,0.00,meteohub,2013-05-23 18:46:00,
2013-05-23 11:51:00,56.1,39.2,29.74,SE,125,12.0,12.0,53,0.00,,,0.00,meteohub,2013-05-23 18:51:00,
2013-05-23 11:56:00,56.7,40.3,29.74,ESE,120,8.0,9.0,54,0.00,,,0.00,meteohub,2013-05-23 18:56:00,
2013-05-23 12:01:00,56.8,39.4,29.74,East,97,8.0,12.0,52,0.00,,,0.00,meteohub,2013-05-23 19:01:00,
2013-05-23 12:06:00,56.7,39.2,29.77,East,85,8.0,12.0,52,0.00,,,0.00,meteohub,2013-05-23 19:06:00,
2013-05-23 12:11:00,56.8,39.4,29.77,ESE,120,4.0,12.0,52,0.00,,,0.00,meteohub,2013-05-23 19:11:00,
2013-05-23 12:17:00,56.8,38.8,29.77,NE,56,4.0,10.0,51,0.00,,,0.00,meteohub,2013-05-23 19:17:00,
2013-05-23 12:22:00,57.4,39.9,29.74,SE,125,11.0,11.0,52,0.00,,,0.00,meteohub,2013-05-23 19:22:00,
2013-05-23 12:27:00,58.1,38.5,29.74,East,82,6.0,10.0,48,0.00,,,0.00,meteohub,2013-05-23 19:27:00,
2013-05-23 12:32:00,57.9,39.4,29.74,ENE,69,3.0,10.0,50,0.00,,,0.00,meteohub,2013-05-23 19:32:00,
2013-05-23 12:37:00,57.6,39.6,29.77,ENE,75,7.0,13.0,51,0.00,,,0.00,meteohub,2013-05-23 19:37:00,
2013-05-23 12:42:00,57.7,39.2,29.77,ESE,113,6.0,13.0,50,0.00,,,0.00,meteohub,2013-05-23 19:42:00,
2013-05-23 12:47:00,58.6,39.0,29.77,East,96,8.0,13.0,48,0.00,,,0.00,meteohub,2013-05-23 19:47:00,
2013-05-23 12:52:00,58.8,38.7,29.74,ESE,116,8.0,13.0,47,0.00,,,0.00,meteohub,2013-05-23 19:52:00,
2013-05-23 12:57:00,58.6,39.0,29.74,ESE,109,6.0,11.0,48,0.00,,,0.00,meteohub,2013-05-23 19:57:00,
2013-05-23 13:02:00,59.4,39.7,29.74,East,80,6.0,11.0,48,0.00,,,0.00,meteohub,2013-05-23 20:02:00,
2013-05-23 13:07:00,59.5,39.4,29.74,SE,128,6.0,11.0,47,0.00,,,0.00,meteohub,2013-05-23 20:07:00,
2013-05-23 13:13:00,59.4,38.7,29.74,ENE,67,6.0,11.0,46,0.00,,,0.00,meteohub,2013-05-23 20:13:00,
2013-05-23 13:18:00,59.7,38.8,29.74,NE,43,3.0,11.0,46,0.00,,,0.00,meteohub,2013-05-23 20:18:00,
2013-05-23 13:23:00,59.2,38.5,29.74,SE,126,4.0,11.0,46,0.00,,,0.00,meteohub,2013-05-23 20:23:00,
2013-05-23 13:28:00,59.9,39.0,29.74,SSE,158,6.0,11.0,46,0.00,,,0.00,meteohub,2013-05-23 20:28:00,
2013-05-23 13:33:00,60.6,39.2,29.74,ESE,104,8.0,10.0,45,0.00,,,0.00,meteohub,2013-05-23 20:33:00,
2013-05-23 13:38:00,60.4,39.6,29.74,East,96,5.0,10.0,46,0.00,,,0.00,meteohub,2013-05-23 20:38:00,
2013-05-23 13:43:00,60.4,39.0,29.74,East,87,5.0,11.0,45,0.00,,,0.00,meteohub,2013-05-23 20:43:00,
2013-05-23 13:48:00,60.3,39.4,29.74,ESE,107,4.0,11.0,46,0.00,,,0.00,meteohub,2013-05-23 20:48:00,
2013-05-23 13:53:00,60.4,39.6,29.74,SE,130,11.0,11.0,46,0.00,,,0.00,meteohub,2013-05-23 20:53:00,
2013-05-23 13:58:00,60.6,39.7,29.74,ESE,113,8.0,13.0,46,0.00,,,0.00,meteohub,2013-05-23 20:58:00,
2013-05-23 14:04:00,61.0,39.6,29.74,ENE,60,5.0,13.0,45,0.00,,,0.00,meteohub,2013-05-23 21:04:00,
2013-05-23 14:09:00,59.7,38.3,29.74,East,95,8.0,13.0,45,0.00,,,0.00,meteohub,2013-05-23 21:09:00,
2013-05-23 14:14:00,60.1,39.7,29.74,East,81,6.0,13.0,47,0.00,,,0.00,meteohub,2013-05-23 21:14:00,
2013-05-23 14:19:00,60.4,39.6,29.74,East,98,8.0,10.0,46,0.00,,,0.00,meteohub,2013-05-23 21:19:00,
2013-05-23 14:24:00,60.6,39.7,29.74,SE,137,5.0,10.0,46,0.00,,,0.00,meteohub,2013-05-23 21:24:00,
2013-05-23 14:29:00,61.2,39.7,29.74,East,100,9.0,11.0,45,0.00,,,0.00,meteohub,2013-05-23 21:29:00,
2013-05-23 14:34:00,61.2,40.3,29.74,ESE,123,8.0,11.0,46,0.00,,,0.00,meteohub,2013-05-23 21:34:00,
2013-05-23 14:39:00,61.5,39.9,29.74,ENE,66,3.0,11.0,45,0.00,,,0.00,meteohub,2013-05-23 21:39:00,
2013-05-23 14:44:00,61.3,40.5,29.74,ESE,118,4.0,17.0,46,0.00,,,0.00,meteohub,2013-05-23 21:44:00,
2013-05-23 14:50:00,61.5,39.9,29.74,East,89,6.0,17.0,45,0.00,,,0.00,meteohub,2013-05-23 21:50:00,
2013-05-23 14:55:00,62.2,40.6,29.74,ESE,113,4.0,17.0,45,0.00,,,0.00,meteohub,2013-05-23 21:55:00,
2013-05-23 15:00:00,63.0,41.4,29.74,ENE,74,4.0,12.0,45,0.00,,,0.00,meteohub,2013-05-23 22:00:00,
2013-05-23 15:05:00,63.0,40.6,29.74,ESE,106,3.0,12.0,44,0.00,,,0.00,meteohub,2013-05-23 22:05:00,
2013-05-23 15:10:00,63.5,41.2,29.74,ESE,114,10.0,12.0,44,0.00,,,0.00,meteohub,2013-05-23 22:10:00,
2013-05-23 15:15:00,63.0,40.6,29.74,East,96,6.0,11.0,44,0.00,,,0.00,meteohub,2013-05-23 22:15:00,
2013-05-23 15:20:00,62.8,40.5,29.74,East,92,6.0,11.0,44,0.00,,,0.00,meteohub,2013-05-23 22:20:00,
2013-05-23 15:25:00,63.0,40.6,29.74,ESE,116,11.0,11.0,44,0.00,,,0.00,meteohub,2013-05-23 22:25:00,
2013-05-23 15:31:00,63.3,41.5,29.74,SE,131,5.0,11.0,45,0.00,,,0.00,meteohub,2013-05-23 22:31:00,
2013-05-23 15:36:00,63.7,41.9,29.74,ESE,111,6.0,11.0,45,0.00,,,0.00,meteohub,2013-05-23 22:36:00,
2013-05-23 15:41:00,63.0,40.6,29.74,NNE,15,4.0,11.0,44,0.00,,,0.00,meteohub,2013-05-23 22:41:00,
2013-05-23 15:46:00,63.1,40.8,29.74,ENE,78,6.0,12.0,44,0.00,,,0.00,meteohub,2013-05-23 22:46:00,
2013-05-23 15:51:00,63.0,41.4,29.74,ESE,116,11.0,12.0,45,0.00,,,0.00,meteohub,2013-05-23 22:51:00,
2013-05-23 15:56:00,63.5,41.7,29.74,ESE,117,6.0,12.0,45,0.00,,,0.00,meteohub,2013-05-23 22:56:00,
2013-05-23 16:01:00,62.2,40.6,29.74,ESE,113,8.0,13.0,45,0.00,,,0.00,meteohub,2013-05-23 23:01:00,
2013-05-23 16:06:00,62.6,41.5,29.74,SE,131,6.0,13.0,46,0.00,,,0.00,meteohub,2013-05-23 23:06:00,
2013-05-23 16:12:00,63.7,42.4,29.74,NE,42,8.0,13.0,46,0.00,,,0.00,meteohub,2013-05-23 23:12:00,
2013-05-23 16:17:00,63.3,41.5,29.74,East,84,5.0,12.0,45,0.00,,,0.00,meteohub,2013-05-23 23:17:00,
2013-05-23 16:22:00,63.1,41.5,29.74,East,86,6.0,12.0,45,0.00,,,0.00,meteohub,2013-05-23 23:22:00,
2013-05-23 16:27:00,63.9,42.1,29.74,SSE,165,11.0,12.0,45,0.00,,,0.00,meteohub,2013-05-23 23:27:00,
2013-05-23 16:32:00,64.4,42.6,29.74,East,98,4.0,10.0,45,0.00,,,0.00,meteohub,2013-05-23 23:32:00,
2013-05-23 16:37:00,64.6,42.3,29.74,East,90,3.0,10.0,44,0.00,,,0.00,meteohub,2013-05-23 23:37:00,
2013-05-23 16:42:00,64.4,42.1,29.74,East,101,5.0,12.0,44,0.00,,,0.00,meteohub,2013-05-23 23:42:00,
2013-05-23 16:48:00,64.6,42.3,29.74,East,81,8.0,12.0,44,0.00,,,0.00,meteohub,2013-05-23 23:48:00,
2013-05-23 16:53:00,64.4,42.1,29.74,ESE,116,6.0,12.0,44,0.00,,,0.00,meteohub,2013-05-23 23:53:00,
2013-05-23 16:58:00,64.2,42.4,29.74,ENE,70,5.0,11.0,45,0.00,,,0.00,meteohub,2013-05-23 23:58:00,
2013-05-23 17:03:00,63.5,41.7,29.74,SE,130,6.0,11.0,45,0.00,,,0.00,meteohub,2013-05-24 00:03:00,
2013-05-23 17:08:00,63.7,41.9,29.74,East,82,8.0,11.0,45,0.00,,,0.00,meteohub,2013-05-24 00:08:00,
2013-05-23 17:13:00,63.1,42.1,29.74,SSE,168,3.0,11.0,46,0.00,,,0.00,meteohub,2013-05-24 00:13:00,
2013-05-23 17:18:00,63.7,42.4,29.74,ENE,60,8.0,10.0,46,0.00,,,0.00,meteohub,2013-05-24 00:18:00,
2013-05-23 17:23:00,63.9,42.1,29.74,NNE,32,7.0,10.0,45,0.00,,,0.00,meteohub,2013-05-24 00:23:00,
2013-05-23 17:29:00,63.5,42.3,29.74,ESE,112,6.0,11.0,46,0.00,,,0.00,meteohub,2013-05-24 00:29:00,
2013-05-23 17:34:00,63.5,41.7,29.74,NE,50,5.0,11.0,45,0.00,,,0.00,meteohub,2013-05-24 00:34:00,
2013-05-23 17:39:00,63.0,41.9,29.74,East,79,6.0,11.0,46,0.00,,,0.00,meteohub,2013-05-24 00:39:00,
2013-05-23 17:44:00,62.4,40.8,29.74,ENE,75,5.0,11.0,45,0.00,,,0.00,meteohub,2013-05-24 00:44:00,
2013-05-23 17:49:00,62.4,41.4,29.74,ESE,120,8.0,11.0,46,0.00,,,0.00,meteohub,2013-05-24 00:49:00,
2013-05-23 17:54:00,62.8,41.2,29.74,ENE,70,8.0,11.0,45,0.00,,,0.00,meteohub,2013-05-24 00:54:00,
2013-05-23 17:59:00,62.2,40.6,29.74,ESE,109,6.0,11.0,45,0.00,,,0.00,meteohub,2013-05-24 00:59:00,
2013-05-23 18:05:00,62.1,39.9,29.74,East,92,8.0,11.0,44,0.00,,,0.00,meteohub,2013-05-24 01:05:00,
2013-05-23 18:09:00,62.2,40.1,29.74,ESE,104,3.0,11.0,44,0.00,,,0.00,meteohub,2013-05-24 01:09:00,
2013-05-23 18:15:00,61.9,39.7,29.74,ENE,78,8.0,11.0,44,0.00,,,0.00,meteohub,2013-05-24 01:15:00,
2013-05-23 18:20:00,60.3,39.4,29.74,East,98,5.0,12.0,46,0.00,,,0.00,meteohub,2013-05-24 01:20:00,
2013-05-23 18:25:00,60.1,39.7,29.74,ESE,104,6.0,12.0,47,0.00,,,0.00,meteohub,2013-05-24 01:25:00,
2013-05-23 18:30:00,60.6,40.3,29.74,NE,45,5.0,12.0,47,0.00,,,0.00,meteohub,2013-05-24 01:30:00,
2013-05-23 18:35:00,61.5,41.2,29.74,East,79,4.0,10.0,47,0.00,,,0.00,meteohub,2013-05-24 01:35:00,
2013-05-23 18:40:00,61.5,40.5,29.74,NE,48,8.0,10.0,46,0.00,,,0.00,meteohub,2013-05-24 01:40:00,
2013-05-23 18:45:00,60.8,41.0,29.74,East,81,0.0,10.0,48,0.00,,,0.00,meteohub,2013-05-24 01:45:00,
2013-05-23 18:51:00,61.5,41.2,29.74,East,86,5.0,10.0,47,0.00,,,0.00,meteohub,2013-05-24 01:51:00,
2013-05-23 18:56:00,60.8,40.5,29.74,ENE,78,4.0,8.0,47,0.00,,,0.00,meteohub,2013-05-24 01:56:00,
2013-05-23 19:01:00,60.6,41.4,29.74,NE,42,4.0,8.0,49,0.00,,,0.00,meteohub,2013-05-24 02:01:00,
2013-05-23 19:06:00,59.9,40.6,29.74,East,95,3.0,8.0,49,0.00,,,0.00,meteohub,2013-05-24 02:06:00,
2013-05-23 19:11:00,60.3,41.5,29.74,East,96,6.0,9.0,50,0.00,,,0.00,meteohub,2013-05-24 02:11:00,
2013-05-23 19:16:00,61.3,41.5,29.74,East,81,5.0,9.0,48,0.00,,,0.00,meteohub,2013-05-24 02:16:00,
2013-05-23 19:21:00,61.3,41.5,29.74,East,90,4.0,8.0,48,0.00,,,0.00,meteohub,2013-05-24 02:21:00,
2013-05-23 19:26:00,60.4,41.2,29.74,NE,42,6.0,8.0,49,0.00,,,0.00,meteohub,2013-05-24 02:26:00,
2013-05-23 19:31:00,59.0,41.4,29.74,ENE,73,3.0,8.0,52,0.00,,,0.00,meteohub,2013-05-24 02:31:00,
2013-05-23 19:37:00,58.8,41.7,29.74,NE,43,0.0,6.0,53,0.00,,,0.00,meteohub,2013-05-24 02:37:00,
2013-05-23 19:42:00,58.5,41.4,29.74,NE,40,0.0,6.0,53,0.00,,,0.00,meteohub,2013-05-24 02:42:00,
2013-05-23 19:47:00,57.4,41.4,29.74,NW,322,3.0,5.0,55,0.00,,,0.00,meteohub,2013-05-24 02:47:00,
2013-05-23 19:52:00,56.7,41.2,29.74,NNW,336,0.0,5.0,56,0.00,,,0.00,meteohub,2013-05-24 02:52:00,
2013-05-23 19:57:00,55.9,41.4,29.74,NNW,342,0.0,4.0,58,0.00,,,0.00,meteohub,2013-05-24 02:57:00,
2013-05-23 20:02:00,55.4,41.7,29.74,North,353,0.0,4.0,60,0.00,,,0.00,meteohub,2013-05-24 03:02:00,
2013-05-23 20:07:00,55.0,42.3,29.74,North,353,0.0,0.0,62,0.00,,,0.00,meteohub,2013-05-24 03:07:00,
2013-05-23 20:12:00,54.5,42.1,29.74,NNE,18,0.0,0.0,63,0.00,,,0.00,meteohub,2013-05-24 03:12:00,
2013-05-23 20:17:00,54.1,41.9,29.74,NNW,336,0.0,0.0,63,0.00,,,0.00,meteohub,2013-05-24 03:17:00,
2013-05-23 20:22:00,53.8,41.9,29.74,NNW,327,0.0,6.0,64,0.00,,,0.00,meteohub,2013-05-24 03:22:00,
2013-05-23 20:27:00,53.6,42.1,29.74,NW,315,0.0,6.0,65,0.00,,,0.00,meteohub,2013-05-24 03:27:00,
2013-05-23 20:32:00,53.4,41.9,29.74,North,6,0.0,6.0,65,0.00,,,0.00,meteohub,2013-05-24 03:32:00,
2013-05-23 20:37:00,53.4,42.3,29.74,ESE,114,0.0,0.0,66,0.00,,,0.00,meteohub,2013-05-24 03:37:00,
2013-05-23 20:42:00,53.4,41.9,29.74,ENE,75,0.0,0.0,65,0.00,,,0.00,meteohub,2013-05-24 03:42:00,
2013-05-23 20:48:00,53.2,41.7,29.74,NE,52,0.0,0.0,65,0.00,,,0.00,meteohub,2013-05-24 03:48:00,
2013-05-23 20:53:00,53.1,41.5,29.74,North,357,4.0,0.0,65,0.00,,,0.00,meteohub,2013-05-24 03:53:00,
2013-05-23 20:58:00,52.9,41.4,29.74,East,85,0.0,0.0,65,0.00,,,0.00,meteohub,2013-05-24 03:58:00,
2013-05-23 21:02:00,52.7,41.2,29.74,ENE,59,0.0,0.0,65,0.00,,,0.00,meteohub,2013-05-24 04:02:00,
2013-05-23 21:04:00,52.7,41.7,29.74,ENE,59,0.0,0.0,66,0.00,,,0.00,meteohub,2013-05-24 04:04:00,
2013-05-23 21:06:00,52.7,41.7,29.74,ENE,59,0.0,4.0,66,0.00,,,0.00,meteohub,2013-05-24 04:06:00,
2013-05-23 21:11:00,52.3,41.4,29.74,NE,56,0.0,4.0,66,0.00,,,0.00,meteohub,2013-05-24 04:11:00,
2013-05-23 21:16:00,52.2,41.2,29.74,NW,319,0.0,4.0,66,0.00,,,0.00,meteohub,2013-05-24 04:16:00,
2013-05-23 21:22:00,52.0,41.4,29.74,North,353,0.0,4.0,67,0.00,,,0.00,meteohub,2013-05-24 04:22:00,
2013-05-23 21:27:00,51.8,41.5,29.74,NW,308,0.0,4.0,68,0.00,,,0.00,meteohub,2013-05-24 04:27:00,
2013-05-23 21:32:00,51.6,41.4,29.74,NW,304,0.0,4.0,68,0.00,,,0.00,meteohub,2013-05-24 04:32:00,
2013-05-23 21:37:00,51.4,41.5,29.74,NW,304,0.0,4.0,69,0.00,,,0.00,meteohub,2013-05-24 04:37:00,
2013-05-23 21:42:00,51.3,41.4,29.74,WNW,285,0.0,4.0,69,0.00,,,0.00,meteohub,2013-05-24 04:42:00,
2013-05-23 21:47:00,51.3,41.4,29.74,NW,320,0.0,3.0,69,0.00,,,0.00,meteohub,2013-05-24 04:47:00,
2013-05-23 21:53:00,50.9,41.2,29.74,NW,318,0.0,3.0,69,0.00,,,0.00,meteohub,2013-05-24 04:53:00,
2013-05-23 21:58:00,50.7,41.0,29.74,WNW,302,0.0,0.0,69,0.00,,,0.00,meteohub,2013-05-24 04:58:00,
2013-05-23 22:03:00,50.7,41.0,29.74,NW,322,0.0,0.0,69,0.00,,,0.00,meteohub,2013-05-24 05:03:00,
2013-05-23 22:08:00,50.5,40.8,29.74,NW,315,0.0,3.0,69,0.00,,,0.00,meteohub,2013-05-24 05:08:00,
2013-05-23 22:13:00,50.4,40.6,29.74,NW,315,0.0,3.0,69,0.00,,,0.00,meteohub,2013-05-24 05:13:00,
2013-05-23 22:18:00,50.4,40.6,29.74,NW,319,0.0,5.0,69,0.00,,,0.00,meteohub,2013-05-24 05:18:00,
2013-05-23 22:23:00,50.2,40.1,29.74,NW,319,0.0,5.0,68,0.00,,,0.00,meteohub,2013-05-24 05:23:00,
2013-05-23 22:28:00,50.2,40.5,29.74,NNW,337,0.0,0.0,69,0.00,,,0.00,meteohub,2013-05-24 05:28:00,
2013-05-23 22:33:00,50.2,40.5,29.74,NNW,345,0.0,0.0,69,0.00,,,0.00,meteohub,2013-05-24 05:33:00,
2013-05-23 22:38:00,50.2,40.5,29.74,NNW,346,0.0,0.0,69,0.00,,,0.00,meteohub,2013-05-24 05:38:00,
2013-05-23 22:44:00,50.0,39.9,29.74,NNW,346,0.0,0.0,68,0.00,,,0.00,meteohub,2013-05-24 05:44:00,
2013-05-23 22:49:00,49.6,39.9,29.74,ENE,60,0.0,0.0,69,0.00,,,0.00,meteohub,2013-05-24 05:49:00,
2013-05-23 22:54:00,49.5,40.1,29.74,ENE,60,0.0,0.0,70,0.00,,,0.00,meteohub,2013-05-24 05:54:00,
2013-05-23 22:59:00,49.1,39.7,29.74,ENE,60,0.0,0.0,70,0.00,,,0.00,meteohub,2013-05-24 05:59:00,
2013-05-23 23:04:00,48.9,39.6,29.74,ENE,60,0.0,0.0,70,0.00,,,0.00,meteohub,2013-05-24 06:04:00,
2013-05-23 23:09:00,48.9,39.9,29.74,ENE,59,0.0,0.0,71,0.00,,,0.00,meteohub,2013-05-24 06:09:00,
2013-05-23 23:14:00,48.7,39.7,29.74,ENE,59,0.0,0.0,71,0.00,,,0.00,meteohub,2013-05-24 06:14:00,
2013-05-23 23:19:00,48.6,39.6,29.74,ENE,63,0.0,0.0,71,0.00,,,0.00,meteohub,2013-05-24 06:19:00,
2013-05-23 23:24:00,48.4,39.4,29.74,ENE,65,0.0,0.0,71,0.00,,,0.00,meteohub,2013-05-24 06:24:00,
2013-05-23 23:29:00,48.4,39.4,29.74,ENE,71,0.0,0.0,71,0.00,,,0.00,meteohub,2013-05-24 06:29:00,
2013-05-23 23:35:00,48.4,39.4,29.74,East,93,0.0,0.0,71,0.00,,,0.00,meteohub,2013-05-24 06:35:00,
2013-05-23 23:40:00,48.4,39.4,29.74,East,93,0.0,0.0,71,0.00,,,0.00,meteohub,2013-05-24 06:40:00,
2013-05-23 23:45:00,48.2,39.2,29.74,East,92,0.0,0.0,71,0.00,,,0.00,meteohub,2013-05-24 06:45:00,
2013-05-23 23:50:00,48.2,39.2,29.74,East,92,0.0,0.0,71,0.00,,,0.00,meteohub,2013-05-24 06:50:00,
2013-05-23 23:55:00,48.2,39.2,29.71,East,92,0.0,0.0,71,0.00,,,0.00,meteohub,2013-05-24 06:55:00,